Location: Unspecified
(0.0000°N, 0.0000°E)
Time: 07:25:45
(UTC+00:00)

Tiros 1 despin weight - Pass Details

Date: 09 October 2023
Orbit: 583 x 627 km, 48.2° (Epoch: 05 December)

Event Time Altitude Azimuth Distance (km) Brightness Sun altitude
Rises 01:03:17 0° 320° (NW) 2,790 - -70.1°
Reaches altitude 10° 01:05:34 10° 319° (NW) 1,889 - -69.6°
Maximum altitude 01:09:53 84° 231° (SW) 586 - -68.6°
Drops below altitude 10° 01:14:13 10° 143° (SE) 1,895 - -67.5°
Sets 01:16:30 0° 142° (SE) 2,798 - -67.0°
